#timestamp,LO_Frequency,Hit,StdDev 
1513170015.7,286046995.4,N
1513170035.6,286046995.5,N
1513170055.4,286046996.2,N
1513170075.2,286046993.4,N
1513170095.0,286046994.0,N
1513170096.0,286046994.0,N
1513170115.8,286046998.7,N
1513170135.6,286046995.3,N
1513170155.4,286046998.6,N
1513170175.3,286046998.6,N
1513170195.1,286046997.8,N
1513170215.8,286046995.6,N
1513170235.7,286046999.1,N
1513170255.5,286046999.7,N
1513170275.3,286047001.7,N
1513170295.2,286047003.7,N
1513170315.9,286047004.3,N
1513170335.7,286047004.8,N
1513170355.6,286047007.6,N
1513170375.4,286047003.0,N
1513170395.2,286047005.9,N
1513170415.0,286047003.9,N
1513170416.0,286047003.9,N
1513170435.8,286047000.6,N
1513170455.6,286046998.6,N
1513170475.4,286047003.5,N
1513170495.3,286047005.5,N
1513170515.1,286047000.1,N
1513170535.8,286046996.6,N
1513170555.7,286046995.6,N
1513170575.5,286046995.1,N
1513170595.3,286046999.1,N
1513170615.2,286047004.9,N
1513170635.9,286047006.5,N
1513170655.7,286047008.3,N
1513170675.6,286047005.3,N
1513170695.4,286047005.0,N
1513170715.2,286047005.8,N
1513170735.1,286047001.8,N
1513170736.0,286047001.8,N
1513170755.8,286047004.4,N
1513170775.6,286047004.1,N
1513170795.5,286047002.2,N
1513170815.3,286047004.4,N
1513170835.1,286047004.9,N
1513170855.8,286047003.1,N
1513170875.7,286047002.8,N
1513170895.5,286047001.7,N
1513170915.3,286047001.6,N
1513170935.2,286047007.2,N
1513170955.9,286047007.2,N
1513170975.7,286047006.3,N
1513170995.6,286047012.2,Y
1513171015.4,286047007.9,P
1513171035.2,286047006.7,N
1513171055.1,286047008.3,P
1513171056.0,286047008.3,Y
1513171075.8,286047003.6,P
1513171095.6,286047003.7,N
1513171115.5,286047003.8,N
1513171135.3,286047008.2,Y
1513171155.1,286047002.3,P
1513171175.9,286046998.9,N
1513171195.7,286046997.8,N
1513171215.5,286046999.5,N
1513171235.4,286047000.4,N
1513171255.2,286047000.3,N
1513171275.0,286047004.8,N
1513171275.9,286047004.8,N
1513171295.8,286047008.3,Y
1513171315.6,286047010.5,P
1513171335.4,286047011.2,N
1513171355.3,286047010.5,N
1513171375.1,286047004.6,N
1513171376.0,286047004.6,N
1513171395.8,286047009.0,N
1513171415.7,286047007.6,N
1513171435.5,286047003.4,N
1513171455.3,286047005.3,N
1513171475.1,286047005.0,N
1513171495.9,286047004.0,N
1513171515.7,286047005.0,N
1513171535.5,286047006.4,N
1513171555.4,286047006.4,N
1513171575.2,286047003.0,N
1513171595.0,286047002.1,N
1513171595.9,286047002.1,N
1513171615.8,286047001.3,N
1513171635.6,286047003.7,N
1513171655.4,286047000.2,N
1513171675.3,286047000.3,N
1513171695.1,286047001.1,N
1513171696.0,286047001.1,N
1513171715.8,286046998.5,N
1513171735.6,286047002.4,N
1513171755.5,286047000.3,N
1513171775.3,286046999.7,N
1513171795.1,286046997.5,N
1513171815.9,286046994.9,N
1513171835.7,286046993.6,N
1513171855.5,286046993.4,N
1513171875.4,286046994.7,N
1513171895.2,286046994.3,N
1513171915.0,286046991.1,N
1513171915.9,286046991.1,N
1513171935.8,286046988.0,N
1513171955.6,286046984.2,Y
1513171975.4,286046982.3,P
1513171995.3,286046984.4,N
1513172015.1,286046990.5,N
1513172016.0,286046990.5,N
1513172035.8,286046994.2,N
1513172055.7,286046993.9,N
1513172075.5,286046991.9,N
1513172095.3,286046997.2,N
1513172115.1,286047000.3,N
1513172135.9,286047001.3,N
1513172155.7,286047003.7,N
1513172175.5,286047000.4,N
1513172195.4,286047000.6,N
1513172215.2,286046996.5,N
1513172235.0,286047002.3,N
1513172235.9,286047002.3,N
1513172255.8,286047004.5,N
1513172275.6,286047008.2,N
1513172295.4,286047010.5,N
1513172315.3,286047014.0,N
1513172335.1,286047013.3,N
1513172336.0,286047013.3,N
1513172355.8,286047010.5,N
1513172375.7,286047009.2,N
1513172395.5,286047007.0,N
1513172415.3,286047008.4,N
1513172435.1,286047016.7,N
1513172455.9,286047018.7,N
1513172475.7,286047018.5,N
1513172495.5,286047012.0,N
1513172515.4,286047008.9,N
1513172535.2,286047007.3,N
1513172555.0,286047004.5,N
1513172555.9,286047004.5,N
1513172575.8,286046999.9,N
1513172595.6,286047000.6,N
1513172615.4,286047001.7,N
1513172635.3,286047000.7,N
1513172655.1,286047004.0,N
1513172656.0,286047004.0,N
1513172675.8,286047000.4,N
1513172695.7,286046995.2,N
1513172715.5,286046993.8,N
1513172735.3,286046993.7,N
1513172755.1,286046992.8,N
1513172775.9,286046992.4,N
1513172795.7,286046994.8,N
1513172815.5,286046990.2,N
1513172835.4,286046994.7,N
1513172855.2,286046995.4,N
1513172875.0,286046997.5,N
1513172875.9,286046997.5,N
1513172895.8,286046997.5,N
1513172915.6,286046994.0,N
1513172935.4,286046993.6,N
1513172955.3,286046999.4,N
1513172975.1,286046998.6,N
1513172976.0,286046998.6,N
1513172995.8,286046998.8,N
1513173015.7,286046998.4,N
1513173035.5,286046995.2,N
1513173055.3,286046994.1,N
1513173075.2,286046989.0,N
1513173095.9,286046987.1,Y
1513173115.7,286046990.2,P
1513173135.6,286046994.0,N
1513173155.4,286046994.1,N
1513173175.2,286046991.4,Y
1513173195.1,286046999.1,P
1513173196.0,286046999.1,N
1513173215.8,286047003.5,N
1513173235.6,286047007.5,N
1513173255.5,286047004.6,N
1513173275.3,286047005.3,N
1513173295.1,286047005.5,N
1513173315.8,286047006.2,N
1513173335.7,286047004.7,N
1513173355.5,286047005.2,N
1513173375.3,286047007.2,N
1513173395.2,286047005.6,N
1513173415.0,286047000.0,N
1513173415.9,286047000.0,N
1513173435.7,286047001.1,N
1513173455.6,286047001.3,N
1513173475.4,286047001.8,N
1513173495.2,286046996.9,N
1513173515.1,286047001.0,N
1513173516.0,286047001.0,N
1513173535.8,286047004.3,N
1513173555.6,286047005.1,N
1513173575.5,286047005.7,N
1513173595.3,286047000.5,N
